User: anonymous   Login
Location: Mentone
(34.5413°N, 85.5351°W)
Time: 06:52:13
(UTC-05:00)
Language:

Cosmos 1703 - Orbit

View from above orbital plane
View from above orbital plane
View from above satellite
View from above satellite

Ground track
Ground track

The orbit data is extracted from the following two-line orbital elements,

1 16262U 85108A   15118.16001386  .00004140  00000-0  26590-3 0  9994
2 16262 082.4864 295.6713 0011335 094.9850 265.2672 15.08154526601073
Epoch (UTC): 28 April 2015 03:50:25
Eccentricity: 0.0011335
inclination: 82.4864°
perigee height: 534 km
apogee height: 549 km
right ascension of ascending node: 295.6713°
argument of perigee: 94.9850°
revolutions per day: 15.08154526
mean anomaly at epoch: 265.2672°
orbit number at epoch: 60107

The dashed part of the orbit path shows where the satellite is in the earth's shadow,  

DLR